Grand Rapids, MI

6:02 AM EDT on May 27, 2017 (GMT -0400)
Gerald R. Ford International

Weather History for KGRR - February, 2015

Change the Weather History Date:

Tuesday, February 24, 2015

  Actual Average Record
Temperature  
Mean Temperature 16 °F 29 °F  
Max Temperature 27 °F 36 °F 57 °F (1976)
Min Temperature 5 °F 22 °F -9 °F (1989)
Degree Days  
Heating Degree Days 49 36  
Month to date heating degree days 1217 926  
Since 1 July heating degree days 5080 4633  
Cooling Degree Days 0 0  
Month to date cooling degree days 0 0  
Year to date cooling degree days 0 0  
Moisture  
Dew Point 9 °F    
Average Humidity 65    
Maximum Humidity 84    
Minimum Humidity 46    
Precipitation  
Precipitation 0.06 in 0.07 in 1.09 in (2001)
Month to date precipitation 1.15 1.49  
Year to date precipitation 3.02 3.58  
Snow  
Snow 1.30 in 0.50 in 7.30 in (2016)
Month to date snowfall 19.4 13.0  
Since 1 July snowfall 74.6 63.0  
Snow Depth 7.00 in    
Sea Level Pressure  
Sea Level Pressure 29.77 in    
Wind  
Wind Speed 18 mph (SW)    
Max Wind Speed 30 mph    
Max Gust Speed 38 mph    
Visibility 6 miles    
Events Fog , Snow    
T = Trace of Precipitation, MM = Missing Value Source: NWS Daily Summary

Daily Weather History Graph

Daily Weather History Graph

Search for Another Location

Airport or City:

Trip Planner

Search our weather history database for the weather conditions in past years. The results will help you decide how hot, cold, wet, or windy it might be!

Date:

Astronomy

Feb. 24, 2015 Rise Set
Actual Time 7:26 AM EST 6:24 PM EST
Civil Twilight 6:57 AM EST 6:53 PM EST
Nautical Twilight 6:24 AM EST 7:26 PM EST
Astronomical Twilight 5:52 AM EST 7:59 PM EST
Moon 10:52 AM EST (2/24) 12:19 AM EST (2/24)
Length of Visible Light 11h 55m
Length of Day
10h 58m
Waxing Crescent, 39% of the Moon is Illuminated
Feb 24
Waxing Crescent
Feb 25
First Quarter
Mar 5
Full
Mar 13
Last Quarter
Mar 20
New

Hourly Weather History & Observations

Time (EST) Temp. Windchill Dew Point Humidity Pressure Visibility Wind Dir Wind Speed Gust Speed Precip Events Conditions
12:53 AM 7.0 °F -9.8 °F -5.1 °F 58% 30.25 in 10.0 mi SSW 13.8 mph - N/A   Clear
1:53 AM 6.1 °F -12.2 °F -5.1 °F 60% 30.21 in 10.0 mi SSW 16.1 mph - N/A   Clear
2:53 AM 5.0 °F -13.6 °F -5.1 °F 63% 30.16 in 10.0 mi SSW 16.1 mph - N/A   Clear
3:53 AM 6.1 °F -12.2 °F -4.0 °F 63% 30.12 in 10.0 mi SSW 16.1 mph - N/A   Clear
4:53 AM 6.1 °F -11.6 °F -4.0 °F 63% 30.06 in 10.0 mi SSW 15.0 mph - N/A   Clear
5:53 AM 6.1 °F -12.2 °F -2.9 °F 67% 30.01 in 10.0 mi SSW 16.1 mph 26.5 mph N/A   Mostly Cloudy
6:53 AM 7.0 °F -13.1 °F -4.0 °F 61% 29.95 in 10.0 mi SSW 20.7 mph 27.6 mph N/A   Mostly Cloudy
7:53 AM 7.0 °F -12.1 °F -6.0 °F 55% 29.91 in 10.0 mi SSW 18.4 mph 31.1 mph N/A   Overcast
8:53 AM 7.0 °F -12.1 °F -6.0 °F 55% 29.86 in 10.0 mi SSW 18.4 mph 25.3 mph N/A   Overcast
9:53 AM 10.9 °F -6.5 °F -4.0 °F 51% 29.80 in 10.0 mi SSW 17.3 mph 29.9 mph N/A   Overcast
10:53 AM 12.0 °F -6.5 °F -0.9 °F 56% 29.77 in 10.0 mi SW 20.7 mph 29.9 mph N/A   Mostly Cloudy
11:10 AM 12.9 °F -5.3 °F -0.0 °F 56% 29.70 in 5.0 mi SW 20.7 mph 28.8 mph 0.00 in Snow Light Snow
11:28 AM 12.2 °F -5.8 °F 1.4 °F 62% 29.70 in 10.0 mi SW 19.6 mph 26.5 mph N/A   Overcast
11:53 AM 14.0 °F -2.5 °F 1.9 °F 59% 29.73 in 10.0 mi SW 17.3 mph 24.2 mph 0.00 in   Overcast
12:18 PM 17.1 °F 2.0 °F 5.0 °F 59% 29.68 in 9.0 mi SW 16.1 mph - 0.00 in Snow Light Snow
12:32 PM 17.1 °F -0.3 °F 8.1 °F 68% 29.68 in 1.5 mi SW 21.9 mph 38.0 mph 0.00 in Snow Light Snow
12:42 PM 17.1 °F -1.7 °F 10.0 °F 74% 29.68 in 0.5 mi SW 26.5 mph 34.5 mph 0.00 in Snow Snow
12:53 PM 17.1 °F -0.6 °F 10.9 °F 77% 29.72 in 0.5 mi SW 23.0 mph 29.9 mph 0.00 in Snow Snow
1:42 PM 18.0 °F 1.3 °F 12.9 °F 81% 29.64 in 1.0 mi SW 20.7 mph - 0.00 in Snow Light Snow
1:53 PM 18.0 °F 3.6 °F 12.9 °F 81% 29.69 in 1.0 mi SW 15.0 mph - 0.00 in Snow Light Snow
2:53 PM 19.9 °F 5.7 °F 15.1 °F 81% 29.66 in 1.2 mi SW 16.1 mph 25.3 mph 0.01 in Snow Light Snow
3:44 PM 19.9 °F 3.5 °F 15.1 °F 81% 29.61 in 0.8 mi WSW 21.9 mph 32.2 mph 0.00 in Snow Light Snow
3:53 PM 19.9 °F 3.2 °F 16.0 °F 85% 29.65 in 0.5 mi WSW 23.0 mph 31.1 mph 0.00 in Snow Snow
4:41 PM 21.0 °F 5.4 °F 16.0 °F 81% 29.60 in 1.0 mi WSW 20.7 mph - 0.00 in Snow Light Snow
4:53 PM 21.0 °F 6.6 °F 16.0 °F 81% 29.65 in 3.0 mi WSW 17.3 mph 25.3 mph 0.00 in Snow Light Snow
5:08 PM 21.0 °F 6.2 °F 17.1 °F 85% 29.60 in 3.0 mi WSW 18.4 mph - 0.00 in Snow Light Snow
5:53 PM 21.9 °F 6.5 °F 18.0 °F 85% 29.64 in 3.0 mi WSW 20.7 mph - 0.00 in Snow Light Snow
6:30 PM 23.0 °F 8.7 °F 18.0 °F 81% 29.60 in 5.0 mi SW 18.4 mph - 0.00 in Snow Light Snow
6:53 PM 24.1 °F 10.1 °F 18.0 °F 77% 29.64 in 10.0 mi SW 18.4 mph - 0.00 in   Overcast
7:53 PM 24.1 °F 11.0 °F 19.0 °F 81% 29.64 in 9.0 mi WSW 16.1 mph - 0.00 in   Mostly Cloudy
8:06 PM 24.1 °F 10.1 °F 19.0 °F 81% 29.60 in 10.0 mi WSW 18.4 mph - N/A   Mostly Cloudy
8:53 PM 25.0 °F 11.3 °F 19.9 °F 81% 29.63 in 10.0 mi WSW 18.4 mph - N/A   Overcast
9:16 PM 26.1 °F 13.6 °F 19.9 °F 78% 29.60 in 1.5 mi West 16.1 mph 28.8 mph 0.00 in Snow Light Snow
9:25 PM 26.1 °F 14.0 °F 21.9 °F 84% 29.61 in 0.5 mi WNW 15.0 mph 31.1 mph 0.01 in Fog , Snow Snow
9:31 PM 26.1 °F 12.3 °F 23.0 °F 88% 29.61 in 0.2 mi WNW 19.6 mph 28.8 mph 0.01 in Fog , Snow Heavy Snow
9:37 PM 26.1 °F 13.1 °F 23.0 °F 88% 29.61 in 3.0 mi West 17.3 mph 28.8 mph 0.01 in Snow Light Snow
9:53 PM 26.6 °F 15.2 °F 21.2 °F 80% 29.61 in 7.0 mi West 13.8 mph - N/A   Scattered Clouds
10:53 PM 26.1 °F 12.3 °F 8.1 °F 47% 29.68 in 10.0 mi WNW 19.6 mph 27.6 mph N/A   Scattered Clouds
11:53 PM 24.1 °F 11.0 °F 12.0 °F 60% 29.72 in 9.0 mi NNW 16.1 mph 24.2 mph N/A   Scattered Clouds